Year,Month,Day,Hour,Minute,Value (Times are PST for temperature in C)
2019,04,02,00,00,11.90
2019,04,02,00,01,12.00
2019,04,02,00,02,12.10
2019,04,02,00,03,12.10
2019,04,02,00,04,12.10
2019,04,02,00,05,12.10
2019,04,02,00,06,12.20
2019,04,02,00,07,12.20
2019,04,02,00,08,12.20
2019,04,02,00,09,12.20
2019,04,02,00,10,12.20
2019,04,02,00,11,12.20
2019,04,02,00,12,12.20
2019,04,02,00,13,12.30
2019,04,02,00,14,12.40
2019,04,02,00,15,12.50
2019,04,02,00,16,12.60
2019,04,02,00,17,12.80
2019,04,02,00,18,12.90
2019,04,02,00,19,13.10
2019,04,02,00,20,13.20
2019,04,02,00,21,13.30
2019,04,02,00,22,13.30
2019,04,02,00,23,13.30
2019,04,02,00,24,13.30
2019,04,02,00,25,13.30
2019,04,02,00,26,13.30
2019,04,02,00,27,13.30
2019,04,02,00,28,13.30
2019,04,02,00,29,13.30
2019,04,02,00,30,13.40
2019,04,02,00,31,13.50
2019,04,02,00,32,13.50
2019,04,02,00,33,13.50
2019,04,02,00,34,13.50
2019,04,02,00,35,13.50
2019,04,02,00,36,13.60
2019,04,02,00,37,13.60
2019,04,02,00,38,13.60
2019,04,02,00,39,13.60
2019,04,02,00,40,13.60
2019,04,02,00,41,13.60
2019,04,02,00,42,13.50
2019,04,02,00,43,13.50
2019,04,02,00,44,13.40
2019,04,02,00,45,13.40
2019,04,02,00,46,13.40
2019,04,02,00,47,13.30
2019,04,02,00,48,13.30
2019,04,02,00,49,13.20
2019,04,02,00,50,13.10
2019,04,02,00,51,13.10
2019,04,02,00,52,13.00
2019,04,02,00,53,13.00
2019,04,02,00,54,13.00
2019,04,02,00,55,13.00
2019,04,02,00,56,13.10
2019,04,02,00,57,13.10
2019,04,02,00,58,13.10
2019,04,02,00,59,13.10
2019,04,02,01,00,13.10
2019,04,02,01,01,13.10
2019,04,02,01,02,13.10
2019,04,02,01,03,13.10
2019,04,02,01,04,13.10
2019,04,02,01,05,13.20
2019,04,02,01,06,13.20
2019,04,02,01,07,13.20
2019,04,02,01,08,13.30
2019,04,02,01,09,13.30
2019,04,02,01,10,13.40
2019,04,02,01,11,13.40
2019,04,02,01,12,13.40
2019,04,02,01,13,13.40
2019,04,02,01,14,13.40
2019,04,02,01,15,13.40
2019,04,02,01,16,13.40
2019,04,02,01,17,13.40
2019,04,02,01,18,13.50
2019,04,02,01,19,13.40
2019,04,02,01,20,13.40
2019,04,02,01,21,13.40
2019,04,02,01,22,13.50
2019,04,02,01,23,13.40
2019,04,02,01,24,13.40
2019,04,02,01,25,13.40
2019,04,02,01,26,13.40
2019,04,02,01,27,13.40
2019,04,02,01,28,13.30
2019,04,02,01,29,13.30
2019,04,02,01,30,13.30
2019,04,02,01,31,13.20
2019,04,02,01,32,13.20
2019,04,02,01,33,13.20
2019,04,02,01,34,13.20
2019,04,02,01,35,13.20
2019,04,02,01,36,13.20
2019,04,02,01,37,13.20
2019,04,02,01,38,13.20
2019,04,02,01,39,13.20
2019,04,02,01,40,13.20
2019,04,02,01,41,13.20
2019,04,02,01,42,13.20
2019,04,02,01,43,13.20
2019,04,02,01,44,13.20
2019,04,02,01,45,13.20
2019,04,02,01,46,13.20
2019,04,02,01,47,13.10
2019,04,02,01,48,13.10
2019,04,02,01,49,13.10
2019,04,02,01,50,13.10
2019,04,02,01,51,13.00
2019,04,02,01,52,13.00
2019,04,02,01,53,12.90
2019,04,02,01,54,12.90
2019,04,02,01,55,12.80
2019,04,02,01,56,12.80
2019,04,02,01,57,12.80
2019,04,02,01,58,12.80
2019,04,02,01,59,12.80
2019,04,02,02,00,12.80
2019,04,02,02,01,12.90
2019,04,02,02,02,12.90
2019,04,02,02,03,12.90
2019,04,02,02,04,12.90
2019,04,02,02,05,12.90
2019,04,02,02,06,12.80
2019,04,02,02,07,12.80
2019,04,02,02,08,12.80
2019,04,02,02,09,12.70
2019,04,02,02,10,12.80
2019,04,02,02,11,12.80
2019,04,02,02,12,12.80
2019,04,02,02,13,12.80
2019,04,02,02,14,12.80
2019,04,02,02,15,12.70
2019,04,02,02,16,12.80
2019,04,02,02,17,12.80
2019,04,02,02,18,12.80
2019,04,02,02,19,12.80
2019,04,02,02,20,12.80
2019,04,02,02,21,12.90
2019,04,02,02,22,12.90
2019,04,02,02,23,12.90
2019,04,02,02,24,12.90
2019,04,02,02,25,12.90
2019,04,02,02,26,12.90
2019,04,02,02,27,12.80
2019,04,02,02,28,12.80
2019,04,02,02,29,12.80
2019,04,02,02,30,12.70
2019,04,02,02,31,12.60
2019,04,02,02,32,12.60
2019,04,02,02,33,12.60
2019,04,02,02,34,12.60
2019,04,02,02,35,12.60
2019,04,02,02,36,12.60
2019,04,02,02,37,12.50
2019,04,02,02,38,12.50
2019,04,02,02,39,12.40
2019,04,02,02,40,12.30
2019,04,02,02,41,12.20
2019,04,02,02,42,12.10
2019,04,02,02,43,12.00
2019,04,02,02,44,11.80
2019,04,02,02,45,11.70
2019,04,02,02,46,11.60
2019,04,02,02,47,11.50
2019,04,02,02,48,11.40
2019,04,02,02,49,11.30
2019,04,02,02,50,11.30
2019,04,02,02,51,11.30
2019,04,02,02,52,11.30
2019,04,02,02,53,11.30
2019,04,02,02,54,11.30
2019,04,02,02,55,11.30
2019,04,02,02,56,11.30
2019,04,02,02,57,11.30
2019,04,02,02,58,11.30
2019,04,02,02,59,11.30
2019,04,02,03,00,11.10
2019,04,02,03,01,10.80
2019,04,02,03,02,10.70
2019,04,02,03,03,10.70
2019,04,02,03,04,10.70
2019,04,02,03,05,10.60
2019,04,02,03,06,10.60
2019,04,02,03,07,10.60
2019,04,02,03,08,10.60
2019,04,02,03,09,10.70
2019,04,02,03,10,10.70
2019,04,02,03,11,10.70
2019,04,02,03,12,10.80
2019,04,02,03,13,10.80
2019,04,02,03,14,10.80
2019,04,02,03,15,10.80
2019,04,02,03,16,10.70
2019,04,02,03,17,10.70
2019,04,02,03,18,10.70
2019,04,02,03,19,10.60
2019,04,02,03,20,10.60
2019,04,02,03,21,10.60
2019,04,02,03,22,10.50
2019,04,02,03,23,10.50
2019,04,02,03,24,10.40
2019,04,02,03,25,10.30
2019,04,02,03,26,10.30
2019,04,02,03,27,10.30
2019,04,02,03,28,10.20
2019,04,02,03,29,10.20
2019,04,02,03,30,10.20
2019,04,02,03,31,10.20
2019,04,02,03,32,10.20
2019,04,02,03,33,10.30
2019,04,02,03,34,10.30
2019,04,02,03,35,10.30
2019,04,02,03,36,10.30
2019,04,02,03,37,10.20
2019,04,02,03,38,10.20
2019,04,02,03,39,10.20
2019,04,02,03,40,10.20
2019,04,02,03,41,10.10
2019,04,02,03,42,10.10
2019,04,02,03,43,10.10
2019,04,02,03,44,10.10
2019,04,02,03,45,10.10
2019,04,02,03,46,10.10
2019,04,02,03,47,10.10
2019,04,02,03,48,10.10
2019,04,02,03,49,10.00
2019,04,02,03,50,9.90
2019,04,02,03,51,9.90
2019,04,02,03,52,9.80
2019,04,02,03,53,9.70
2019,04,02,03,54,9.60
2019,04,02,03,55,9.60
2019,04,02,03,56,9.50
2019,04,02,03,57,9.40
2019,04,02,03,58,9.40
2019,04,02,03,59,9.40
2019,04,02,04,00,9.40
2019,04,02,04,01,9.40
2019,04,02,04,02,9.30
2019,04,02,04,03,9.30
2019,04,02,04,04,9.30
2019,04,02,04,05,9.30
2019,04,02,04,06,9.40
2019,04,02,04,07,9.50
2019,04,02,04,08,9.60
2019,04,02,04,09,9.60
2019,04,02,04,10,9.70
2019,04,02,04,11,9.70
2019,04,02,04,12,9.70
2019,04,02,04,13,9.80
2019,04,02,04,14,10.00
2019,04,02,04,15,10.10
2019,04,02,04,16,10.20
2019,04,02,04,17,10.30
2019,04,02,04,18,10.40
2019,04,02,04,19,10.50
2019,04,02,04,20,10.70
2019,04,02,04,21,10.70
2019,04,02,04,22,10.80
2019,04,02,04,23,10.90
2019,04,02,04,24,10.90
2019,04,02,04,25,10.90
2019,04,02,04,26,10.90
2019,04,02,04,27,10.90
2019,04,02,04,28,10.80
2019,04,02,04,29,10.80
2019,04,02,04,30,10.70
2019,04,02,04,31,10.70
2019,04,02,04,32,10.70
2019,04,02,04,33,10.60
2019,04,02,04,34,10.50
2019,04,02,04,35,10.50
2019,04,02,04,36,10.40
2019,04,02,04,37,10.40
2019,04,02,04,38,10.30
2019,04,02,04,39,10.30
2019,04,02,04,40,10.20
2019,04,02,04,41,10.20
2019,04,02,04,42,10.10
2019,04,02,04,43,10.00
2019,04,02,04,44,10.00
2019,04,02,04,45,9.90
2019,04,02,04,46,9.90
2019,04,02,04,47,9.80
2019,04,02,04,48,9.80
2019,04,02,04,49,9.70
2019,04,02,04,50,9.60
2019,04,02,04,51,9.50
2019,04,02,04,52,9.50
2019,04,02,04,53,9.40
2019,04,02,04,54,9.40
2019,04,02,04,55,9.40
2019,04,02,04,56,9.30
2019,04,02,04,57,9.30
2019,04,02,04,58,9.30
2019,04,02,04,59,9.30
2019,04,02,05,00,9.30
2019,04,02,05,01,9.40
2019,04,02,05,02,9.40
2019,04,02,05,03,9.60
2019,04,02,05,04,9.80
2019,04,02,05,05,10.00
2019,04,02,05,06,10.20
2019,04,02,05,07,10.40
2019,04,02,05,08,10.60
2019,04,02,05,09,10.80
2019,04,02,05,10,10.90
2019,04,02,05,11,11.00
2019,04,02,05,12,11.10
2019,04,02,05,13,11.20
2019,04,02,05,14,11.20
2019,04,02,05,15,11.30
2019,04,02,05,16,11.20
2019,04,02,05,17,11.10
2019,04,02,05,18,11.10
2019,04,02,05,19,11.00
2019,04,02,05,20,10.90
2019,04,02,05,21,10.90
2019,04,02,05,22,10.80
2019,04,02,05,23,10.70
2019,04,02,05,24,10.70
2019,04,02,05,25,10.60
2019,04,02,05,26,10.60
2019,04,02,05,27,10.60
2019,04,02,05,28,10.60
2019,04,02,05,29,10.50
2019,04,02,05,30,10.40
2019,04,02,05,31,10.30
2019,04,02,05,32,10.10
2019,04,02,05,33,10.00
2019,04,02,05,34,9.90
2019,04,02,05,35,9.80
2019,04,02,05,36,9.70
2019,04,02,05,37,9.60
2019,04,02,05,38,9.60
2019,04,02,05,39,9.50
2019,04,02,05,40,9.40
2019,04,02,05,41,9.30
2019,04,02,05,42,9.30
2019,04,02,05,43,9.20
2019,04,02,05,44,9.10
2019,04,02,05,45,9.10
2019,04,02,05,46,9.00
2019,04,02,05,47,8.90
2019,04,02,05,48,8.90
2019,04,02,05,49,8.90
2019,04,02,05,50,8.80
2019,04,02,05,51,8.80
2019,04,02,05,52,8.70
2019,04,02,05,53,8.60
2019,04,02,05,54,8.60
2019,04,02,05,55,8.50
2019,04,02,05,56,8.50
2019,04,02,05,57,8.40
2019,04,02,05,58,8.40
2019,04,02,05,59,8.40
2019,04,02,06,00,8.30
2019,04,02,06,01,8.30
2019,04,02,06,02,8.20
2019,04,02,06,03,8.20
2019,04,02,06,04,8.20
2019,04,02,06,05,8.10
2019,04,02,06,06,8.10
2019,04,02,06,07,8.00
2019,04,02,06,08,8.00
2019,04,02,06,09,7.90
2019,04,02,06,10,7.90
2019,04,02,06,11,7.90
2019,04,02,06,12,7.80
2019,04,02,06,13,7.80
2019,04,02,06,14,7.80
2019,04,02,06,15,7.80
2019,04,02,06,16,7.80
2019,04,02,06,17,7.80
2019,04,02,06,18,7.80
2019,04,02,06,19,7.80
2019,04,02,06,20,7.70
2019,04,02,06,21,7.70
2019,04,02,06,22,7.70
2019,04,02,06,23,7.70
2019,04,02,06,24,7.70
2019,04,02,06,25,7.60
2019,04,02,06,26,7.60
2019,04,02,06,27,7.60
2019,04,02,06,28,7.60
2019,04,02,06,29,7.70
2019,04,02,06,30,7.70
2019,04,02,06,31,7.70
2019,04,02,06,32,7.70
2019,04,02,06,33,7.80
2019,04,02,06,34,7.80
2019,04,02,06,35,7.80
2019,04,02,06,36,7.80
2019,04,02,06,37,7.90
2019,04,02,06,38,8.00
2019,04,02,06,39,8.10
2019,04,02,06,40,8.20
2019,04,02,06,41,8.30
2019,04,02,06,42,8.30
2019,04,02,06,43,8.20
2019,04,02,06,44,8.20
2019,04,02,06,45,8.20
2019,04,02,06,46,8.10
2019,04,02,06,47,8.10
2019,04,02,06,48,8.00
2019,04,02,06,49,8.00
2019,04,02,06,50,7.90
2019,04,02,06,51,7.90
2019,04,02,06,52,7.80
2019,04,02,06,53,7.80
2019,04,02,06,54,7.80
2019,04,02,06,55,7.80
2019,04,02,06,56,7.80
2019,04,02,06,57,7.80
2019,04,02,06,58,7.80
2019,04,02,06,59,7.80
2019,04,02,07,00,7.80
2019,04,02,07,01,7.90
2019,04,02,07,02,7.90
2019,04,02,07,03,7.80
2019,04,02,07,04,7.80
2019,04,02,07,05,7.80
2019,04,02,07,06,7.80
2019,04,02,07,07,7.80
2019,04,02,07,08,7.80
2019,04,02,07,09,7.80
2019,04,02,07,10,7.70
2019,04,02,07,11,7.70
2019,04,02,07,12,7.70
2019,04,02,07,13,7.70
2019,04,02,07,14,7.60
2019,04,02,07,15,7.60
2019,04,02,07,16,7.60
2019,04,02,07,17,7.60
2019,04,02,07,18,7.60
2019,04,02,07,19,7.60
2019,04,02,07,20,7.60
2019,04,02,07,21,7.70
2019,04,02,07,22,7.70
2019,04,02,07,23,7.70
2019,04,02,07,24,7.70
2019,04,02,07,25,7.80
2019,04,02,07,26,7.80
2019,04,02,07,27,7.80
2019,04,02,07,28,7.80
2019,04,02,07,29,7.80
2019,04,02,07,30,7.80
2019,04,02,07,31,7.80
2019,04,02,07,32,7.80
2019,04,02,07,33,7.80
2019,04,02,07,34,7.80
2019,04,02,07,35,7.80
2019,04,02,07,36,7.80
2019,04,02,07,37,7.80
2019,04,02,07,38,7.80
2019,04,02,07,39,7.80
2019,04,02,07,40,7.80
2019,04,02,07,41,7.80
2019,04,02,07,42,7.80
2019,04,02,07,43,7.80
2019,04,02,07,44,7.90
2019,04,02,07,45,7.90
2019,04,02,07,46,7.90
2019,04,02,07,47,8.00
2019,04,02,07,48,8.00
2019,04,02,07,49,8.00
2019,04,02,07,50,8.10
2019,04,02,07,51,8.10
2019,04,02,07,52,8.20
2019,04,02,07,53,8.30
2019,04,02,07,54,8.30
2019,04,02,07,55,8.30
2019,04,02,07,56,8.40
2019,04,02,07,57,8.50
2019,04,02,07,58,8.50
2019,04,02,07,59,8.60
2019,04,02,08,00,8.60
2019,04,02,08,01,8.70
2019,04,02,08,02,8.70
2019,04,02,08,03,8.80
2019,04,02,08,04,8.80
2019,04,02,08,05,8.90
2019,04,02,08,06,8.90
2019,04,02,08,07,8.90
2019,04,02,08,08,9.00
2019,04,02,08,09,9.00
2019,04,02,08,10,9.10
2019,04,02,08,11,9.10
2019,04,02,08,12,9.20
2019,04,02,08,13,9.20
2019,04,02,08,14,9.20
2019,04,02,08,15,9.30
2019,04,02,08,16,9.30
2019,04,02,08,17,9.40
2019,04,02,08,18,9.40
2019,04,02,08,19,9.50
2019,04,02,08,20,9.60
2019,04,02,08,21,9.70
2019,04,02,08,22,9.80
2019,04,02,08,23,9.90
2019,04,02,08,24,10.00
2019,04,02,08,25,10.20
2019,04,02,08,26,10.30
2019,04,02,08,27,10.40
2019,04,02,08,28,10.60
2019,04,02,08,29,10.70
2019,04,02,08,30,10.80
2019,04,02,08,31,10.90
2019,04,02,08,32,10.90
2019,04,02,08,33,11.00
2019,04,02,08,34,11.10
2019,04,02,08,35,11.20
2019,04,02,08,36,11.30
2019,04,02,08,37,11.40
2019,04,02,08,38,11.40
2019,04,02,08,39,11.50
2019,04,02,08,40,11.60
2019,04,02,08,41,11.70
2019,04,02,08,42,11.70
2019,04,02,08,43,11.80
2019,04,02,08,44,11.90
2019,04,02,08,45,12.10
2019,04,02,08,46,12.20
2019,04,02,08,47,12.30
2019,04,02,08,48,12.30
2019,04,02,08,49,12.40
2019,04,02,08,50,12.50
2019,04,02,08,51,12.60
2019,04,02,08,52,12.60
2019,04,02,08,53,12.70
2019,04,02,08,54,12.70
2019,04,02,08,55,12.80
2019,04,02,08,56,12.80
2019,04,02,08,57,12.90
2019,04,02,08,58,12.90
2019,04,02,08,59,12.90
2019,04,02,09,00,13.00
2019,04,02,09,01,13.00
2019,04,02,09,02,13.10
2019,04,02,09,03,13.10
2019,04,02,09,04,13.10
2019,04,02,09,05,13.20
2019,04,02,09,06,13.20
2019,04,02,09,07,13.20
2019,04,02,09,08,13.20
2019,04,02,09,09,13.20
2019,04,02,09,10,13.20
2019,04,02,09,11,13.30
2019,04,02,09,12,13.30
2019,04,02,09,13,13.30
2019,04,02,09,14,13.40
2019,04,02,09,15,13.40
2019,04,02,09,16,13.50
2019,04,02,09,17,13.50
2019,04,02,09,18,13.60
2019,04,02,09,19,13.60
2019,04,02,09,20,13.60
2019,04,02,09,21,13.70
2019,04,02,09,22,13.70
2019,04,02,09,23,13.70
2019,04,02,09,24,13.80
2019,04,02,09,25,13.80
2019,04,02,09,26,13.80
2019,04,02,09,27,13.90
2019,04,02,09,28,13.90
2019,04,02,09,29,13.90
2019,04,02,09,30,14.00
2019,04,02,09,31,14.00
2019,04,02,09,32,14.00
2019,04,02,09,33,14.10
2019,04,02,09,34,14.10
2019,04,02,09,35,14.10
2019,04,02,09,36,14.20
2019,04,02,09,37,14.20
2019,04,02,09,38,14.20
2019,04,02,09,39,14.20
2019,04,02,09,40,14.20
2019,04,02,09,41,14.20
2019,04,02,09,42,14.20
2019,04,02,09,43,14.20
2019,04,02,09,44,14.20
2019,04,02,09,45,14.30
2019,04,02,09,46,14.30
2019,04,02,09,47,14.30
2019,04,02,09,48,14.30
2019,04,02,09,49,14.40
2019,04,02,09,50,14.40
2019,04,02,09,51,14.50
2019,04,02,09,52,14.50
2019,04,02,09,53,14.50
2019,04,02,09,54,14.50
2019,04,02,09,55,14.50
2019,04,02,09,56,14.50
2019,04,02,09,57,14.50
2019,04,02,09,58,14.50
2019,04,02,09,59,14.40
2019,04,02,10,00,14.40
2019,04,02,10,01,14.40
2019,04,02,10,02,14.40
2019,04,02,10,03,14.50
2019,04,02,10,04,14.60
2019,04,02,10,05,14.60
2019,04,02,10,06,14.70
2019,04,02,10,07,14.70
2019,04,02,10,08,14.70
2019,04,02,10,09,14.80
2019,04,02,10,10,14.90
2019,04,02,10,11,15.00
2019,04,02,10,12,15.00
2019,04,02,10,13,15.10
2019,04,02,10,14,15.20
2019,04,02,10,15,15.20
2019,04,02,10,16,15.20
2019,04,02,10,17,15.20
2019,04,02,10,18,15.20
2019,04,02,10,19,15.20
2019,04,02,10,20,15.30
2019,04,02,10,21,15.40
2019,04,02,10,22,15.40
2019,04,02,10,23,15.50
2019,04,02,10,24,15.50
2019,04,02,10,25,15.50
2019,04,02,10,26,15.60
2019,04,02,10,27,15.60
2019,04,02,10,28,15.50
2019,04,02,10,29,15.50
2019,04,02,10,30,15.50
2019,04,02,10,31,15.50
2019,04,02,10,32,15.60
2019,04,02,10,33,15.70
2019,04,02,10,34,15.70
2019,04,02,10,35,15.70
2019,04,02,10,36,15.70
2019,04,02,10,37,15.70
2019,04,02,10,38,15.60
2019,04,02,10,39,15.50
2019,04,02,10,40,15.50
2019,04,02,10,41,15.50
2019,04,02,10,42,15.60
2019,04,02,10,43,15.80
2019,04,02,10,44,16.00
2019,04,02,10,45,16.10
2019,04,02,10,46,16.10
2019,04,02,10,47,16.00
2019,04,02,10,48,15.90
2019,04,02,10,49,15.80
2019,04,02,10,50,15.80
2019,04,02,10,51,15.90
2019,04,02,10,52,15.90
2019,04,02,10,53,15.90
2019,04,02,10,54,16.00
2019,04,02,10,55,16.10
2019,04,02,10,56,16.20
2019,04,02,10,57,16.30
2019,04,02,10,58,16.20
2019,04,02,10,59,16.10
2019,04,02,11,00,16.10
2019,04,02,11,01,16.10
2019,04,02,11,02,16.20
2019,04,02,11,03,16.20
2019,04,02,11,04,16.10
2019,04,02,11,05,16.10
2019,04,02,11,06,16.10
2019,04,02,11,07,16.10
2019,04,02,11,08,16.20
2019,04,02,11,09,16.30
2019,04,02,11,10,16.30
2019,04,02,11,11,16.40
2019,04,02,11,12,16.40
2019,04,02,11,13,16.50
2019,04,02,11,14,16.60
2019,04,02,11,15,16.60
2019,04,02,11,16,16.60
2019,04,02,11,17,16.60
2019,04,02,11,18,16.60
2019,04,02,11,19,16.60
2019,04,02,11,20,16.50
2019,04,02,11,21,16.40
2019,04,02,11,22,16.30
2019,04,02,11,23,16.30
2019,04,02,11,24,16.20
2019,04,02,11,25,16.20
2019,04,02,11,26,16.30
2019,04,02,11,27,16.40
2019,04,02,11,28,16.40
2019,04,02,11,29,16.30
2019,04,02,11,30,16.20
2019,04,02,11,31,16.20
2019,04,02,11,32,16.20
2019,04,02,11,33,16.30
2019,04,02,11,34,16.50
2019,04,02,11,35,16.60
2019,04,02,11,36,16.60
2019,04,02,11,37,16.50
2019,04,02,11,38,16.40
2019,04,02,11,39,16.50
2019,04,02,11,40,16.40
2019,04,02,11,41,16.40
2019,04,02,11,42,16.40
2019,04,02,11,43,16.50
2019,04,02,11,44,16.60
2019,04,02,11,45,16.60
2019,04,02,11,46,16.60
2019,04,02,11,47,16.70
2019,04,02,11,48,16.70
2019,04,02,11,49,16.80
2019,04,02,11,50,16.80
2019,04,02,11,51,16.80
2019,04,02,11,52,16.80
2019,04,02,11,53,16.70
2019,04,02,11,54,16.70
2019,04,02,11,55,16.70
2019,04,02,11,56,16.70
2019,04,02,11,57,16.70
2019,04,02,11,58,16.70
2019,04,02,11,59,16.80
2019,04,02,12,00,16.80
2019,04,02,12,01,16.80
2019,04,02,12,02,16.80
2019,04,02,12,03,16.70
2019,04,02,12,04,16.70
2019,04,02,12,05,16.70
2019,04,02,12,06,16.60
2019,04,02,12,07,16.50
2019,04,02,12,08,16.40
2019,04,02,12,09,16.30
2019,04,02,12,10,16.30
2019,04,02,12,11,16.40
2019,04,02,12,12,16.50
2019,04,02,12,13,16.40
2019,04,02,12,14,16.30
2019,04,02,12,15,16.40
2019,04,02,12,16,16.50
2019,04,02,12,17,16.80
2019,04,02,12,18,16.90
2019,04,02,12,19,17.10
2019,04,02,12,20,17.10
2019,04,02,12,21,17.00
2019,04,02,12,22,16.80
2019,04,02,12,23,16.80
2019,04,02,12,24,16.70
2019,04,02,12,25,16.60
2019,04,02,12,26,16.60
2019,04,02,12,27,16.60
2019,04,02,12,28,16.60
2019,04,02,12,29,16.70
2019,04,02,12,30,16.60
2019,04,02,12,31,16.50
2019,04,02,12,32,16.50
2019,04,02,12,33,16.40
2019,04,02,12,34,16.50
2019,04,02,12,35,16.50
2019,04,02,12,36,16.80
2019,04,02,12,37,17.10
2019,04,02,12,38,17.30
2019,04,02,12,39,17.50
2019,04,02,12,40,17.40
2019,04,02,12,41,17.50
2019,04,02,12,42,17.60
2019,04,02,12,43,17.60
2019,04,02,12,44,17.60
2019,04,02,12,45,17.70
2019,04,02,12,46,17.70
2019,04,02,12,47,17.70
2019,04,02,12,48,17.70
2019,04,02,12,49,17.80
2019,04,02,12,50,17.90
2019,04,02,12,51,17.90
2019,04,02,12,52,17.90
2019,04,02,12,53,17.90
2019,04,02,12,54,18.00
2019,04,02,12,55,18.10
2019,04,02,12,56,18.10
2019,04,02,12,57,18.20
2019,04,02,12,58,18.30
2019,04,02,12,59,18.20
2019,04,02,13,00,18.10
2019,04,02,13,01,17.90
2019,04,02,13,02,17.80
2019,04,02,13,03,17.70
2019,04,02,13,04,17.80
2019,04,02,13,05,17.90
2019,04,02,13,06,18.00
2019,04,02,13,07,18.20
2019,04,02,13,08,18.40
2019,04,02,13,09,18.50
2019,04,02,13,10,18.50
2019,04,02,13,11,18.50
2019,04,02,13,12,18.40
2019,04,02,13,13,18.30
2019,04,02,13,14,18.30
2019,04,02,13,15,18.50
2019,04,02,13,16,18.60
2019,04,02,13,17,18.60
2019,04,02,13,18,18.50
2019,04,02,13,19,18.40
2019,04,02,13,20,18.40
2019,04,02,13,21,18.30
2019,04,02,13,22,18.20
2019,04,02,13,23,18.30
2019,04,02,13,24,18.40
2019,04,02,13,25,18.40
2019,04,02,13,26,18.30
2019,04,02,13,27,18.10
2019,04,02,13,28,18.00
2019,04,02,13,29,17.90
2019,04,02,13,30,17.80
2019,04,02,13,31,17.90
2019,04,02,13,32,18.00
2019,04,02,13,33,18.00
2019,04,02,13,34,17.90
2019,04,02,13,35,17.90
2019,04,02,13,36,17.90
2019,04,02,13,37,17.90
2019,04,02,13,38,17.90
2019,04,02,13,39,17.90
2019,04,02,13,40,17.80
2019,04,02,13,41,17.90
2019,04,02,13,42,17.90
2019,04,02,13,43,17.90
2019,04,02,13,44,18.10
2019,04,02,13,45,18.40
2019,04,02,13,46,18.40
2019,04,02,13,47,18.30
2019,04,02,13,48,18.30
2019,04,02,13,49,18.20
2019,04,02,13,50,18.10
2019,04,02,13,51,18.10
2019,04,02,13,52,18.10
2019,04,02,13,53,18.20
2019,04,02,13,54,18.20
2019,04,02,13,55,18.20
2019,04,02,13,56,18.20
2019,04,02,13,57,18.30
2019,04,02,13,58,18.30
2019,04,02,13,59,18.30
2019,04,02,14,00,18.30
2019,04,02,14,01,18.40
2019,04,02,14,02,18.40
2019,04,02,14,03,18.40
2019,04,02,14,04,18.40
2019,04,02,14,05,18.40
2019,04,02,14,06,18.40
2019,04,02,14,07,18.30
2019,04,02,14,08,18.20
2019,04,02,14,09,18.20
2019,04,02,14,10,18.10
2019,04,02,14,11,18.10
2019,04,02,14,12,18.10
2019,04,02,14,13,18.00
2019,04,02,14,14,18.10
2019,04,02,14,15,18.10
2019,04,02,14,16,18.20
2019,04,02,14,17,18.30
2019,04,02,14,18,18.30
2019,04,02,14,19,18.50
2019,04,02,14,20,18.60
2019,04,02,14,21,18.50
2019,04,02,14,22,18.40
2019,04,02,14,23,18.30
2019,04,02,14,24,18.30
2019,04,02,14,25,18.30
2019,04,02,14,26,18.40
2019,04,02,14,27,18.40
2019,04,02,14,28,18.40
2019,04,02,14,29,18.50
2019,04,02,14,30,18.40
2019,04,02,14,31,18.50
2019,04,02,14,32,18.50
2019,04,02,14,33,18.60
2019,04,02,14,34,18.60
2019,04,02,14,35,18.70
2019,04,02,14,36,18.80
2019,04,02,14,37,18.90
2019,04,02,14,38,19.10
2019,04,02,14,39,19.20
2019,04,02,14,40,19.20
2019,04,02,14,41,19.20
2019,04,02,14,42,19.20
2019,04,02,14,43,19.10
2019,04,02,14,44,19.00
2019,04,02,14,45,19.00
2019,04,02,14,46,18.90
2019,04,02,14,47,18.90
2019,04,02,14,48,18.80
2019,04,02,14,49,18.90
2019,04,02,14,50,18.90
2019,04,02,14,51,18.90
2019,04,02,14,52,19.00
2019,04,02,14,53,19.10
2019,04,02,14,54,19.10
2019,04,02,14,55,19.10
2019,04,02,14,56,19.00
2019,04,02,14,57,19.00
2019,04,02,14,58,19.00
2019,04,02,14,59,18.90
2019,04,02,15,00,18.80
2019,04,02,15,01,18.70
2019,04,02,15,02,18.60
2019,04,02,15,03,18.60
2019,04,02,15,04,18.70
2019,04,02,15,05,18.70
2019,04,02,15,06,18.60
2019,04,02,15,07,18.50
2019,04,02,15,08,18.50
2019,04,02,15,09,18.40
2019,04,02,15,10,18.40
2019,04,02,15,11,18.40
2019,04,02,15,12,18.40
2019,04,02,15,13,18.40
2019,04,02,15,14,18.40
2019,04,02,15,15,18.40
2019,04,02,15,16,18.50
2019,04,02,15,17,18.50
2019,04,02,15,18,18.40
2019,04,02,15,19,18.30
2019,04,02,15,20,18.30
2019,04,02,15,21,18.30
2019,04,02,15,22,18.30
2019,04,02,15,23,18.40
2019,04,02,15,24,18.40
2019,04,02,15,25,18.40
2019,04,02,15,26,18.40
2019,04,02,15,27,18.40
2019,04,02,15,28,18.40
2019,04,02,15,29,18.50
2019,04,02,15,30,18.50
2019,04,02,15,31,18.50
2019,04,02,15,32,18.50
2019,04,02,15,33,18.50
2019,04,02,15,34,18.50
2019,04,02,15,35,18.60
2019,04,02,15,36,18.60
2019,04,02,15,37,18.60
2019,04,02,15,38,18.70
2019,04,02,15,39,18.70
2019,04,02,15,40,18.80
2019,04,02,15,41,18.90
2019,04,02,15,42,18.80
2019,04,02,15,43,18.80
2019,04,02,15,44,18.80
2019,04,02,15,45,18.80
2019,04,02,15,46,18.80
2019,04,02,15,47,18.70
2019,04,02,15,48,18.70
2019,04,02,15,49,18.70
2019,04,02,15,50,18.70
2019,04,02,15,51,18.70
2019,04,02,15,52,18.70
2019,04,02,15,53,18.70
2019,04,02,15,54,18.80
2019,04,02,15,55,18.80
2019,04,02,15,56,18.80
2019,04,02,15,57,18.80
2019,04,02,15,58,18.70
2019,04,02,15,59,18.60
2019,04,02,16,00,18.50
2019,04,02,16,01,18.50
2019,04,02,16,02,18.40
2019,04,02,16,03,18.30
2019,04,02,16,04,18.30
2019,04,02,16,05,18.30
2019,04,02,16,06,18.30
2019,04,02,16,07,18.30
2019,04,02,16,08,18.20
2019,04,02,16,09,18.20
2019,04,02,16,10,18.20
2019,04,02,16,11,18.20
2019,04,02,16,12,18.20
2019,04,02,16,13,18.10
2019,04,02,16,14,18.10
2019,04,02,16,15,18.10
2019,04,02,16,16,18.10
2019,04,02,16,17,18.10
2019,04,02,16,18,18.10
2019,04,02,16,19,18.10
2019,04,02,16,20,18.10
2019,04,02,16,21,18.20
2019,04,02,16,22,18.20
2019,04,02,16,23,18.30
2019,04,02,16,24,18.30
2019,04,02,16,25,18.30
2019,04,02,16,26,18.30
2019,04,02,16,27,18.30
2019,04,02,16,28,18.30
2019,04,02,16,29,18.30
2019,04,02,16,30,18.40
2019,04,02,16,31,18.50
2019,04,02,16,32,18.50
2019,04,02,16,33,18.50
2019,04,02,16,34,18.50
2019,04,02,16,35,18.50
2019,04,02,16,36,18.50
2019,04,02,16,37,18.50
2019,04,02,16,38,18.50
2019,04,02,16,39,18.50
2019,04,02,16,40,18.50
2019,04,02,16,41,18.60
2019,04,02,16,42,18.70
2019,04,02,16,43,18.70
2019,04,02,16,44,18.70
2019,04,02,16,45,18.70
2019,04,02,16,46,18.70
2019,04,02,16,47,18.60
2019,04,02,16,48,18.50
2019,04,02,16,49,18.40
2019,04,02,16,50,18.40
2019,04,02,16,51,18.30
2019,04,02,16,52,18.20
2019,04,02,16,53,18.20
2019,04,02,16,54,18.20
2019,04,02,16,55,18.10
2019,04,02,16,56,18.10
2019,04,02,16,57,18.10
2019,04,02,16,58,18.20
2019,04,02,16,59,18.30
2019,04,02,17,00,18.30
2019,04,02,17,01,18.40
2019,04,02,17,02,18.50
2019,04,02,17,03,18.60
2019,04,02,17,04,18.70
2019,04,02,17,05,18.70
2019,04,02,17,06,18.80
2019,04,02,17,07,18.80
2019,04,02,17,08,18.80
2019,04,02,17,09,18.80
2019,04,02,17,10,18.80
2019,04,02,17,11,18.80
2019,04,02,17,12,18.70
2019,04,02,17,13,18.70
2019,04,02,17,14,18.60
2019,04,02,17,15,18.60
2019,04,02,17,16,18.50
2019,04,02,17,17,18.50
2019,04,02,17,18,18.50
2019,04,02,17,19,18.40
2019,04,02,17,20,18.40
2019,04,02,17,21,18.40
2019,04,02,17,22,18.30
2019,04,02,17,23,18.30
2019,04,02,17,24,18.30
2019,04,02,17,25,18.30
2019,04,02,17,26,18.20
2019,04,02,17,27,18.20
2019,04,02,17,28,18.20